| time (UTC) | temp C | wind direction | speed KPH | gust KPH | rain 1hr cm | rain 24hr cm | rain mn cm | humidity % | barometer mb |
| 20260506143015 | 10 | 212 | 0.0 | 0.0 | 0.00 | 0.03 | 0.03 | 100 | 1018.5 |
| 20260506142016 | 10 | 212 | 0.0 | 0.0 | 0.00 | 0.03 | 0.03 | 100 | 1018.3 |
| 20260506141016 | 10 | 212 | 0.0 | 0.0 | 0.00 | 0.03 | 0.03 | 100 | 1018.2 |
| 20260506140015 | 10 | 212 | 0.0 | 0.0 | 0.00 | 0.03 | 0.03 | 100 | 1018.2 |
| 20260506135015 | 10 | 212 | 0.0 | 0.0 | 0.00 | 0.03 | 0.03 | 100 | 1018.1 |
| 20260506134016 | 10 | 212 | 0.0 | 0.0 | 0.00 | 0.03 | 0.03 | 100 | 1018.1 |
| 20260506133015 | 10 | 212 | 0.0 | 0.0 | 0.03 | 0.03 | 0.03 | 100 | 1018.1 |
| 20260506132015 | 10 | 212 | 0.0 | 0.0 | 0.03 | 0.03 | 0.03 | 100 | 1018.0 |
| 20260506131055 | 10 | 212 | 0.0 | 0.0 | 0.03 | 0.03 | 0.03 | 100 | 1018.1 |
| 20260506130156 | 10 | 212 | 0.0 | 0.0 | 0.03 | 0.03 | 0.03 | 100 | 1018.1 |
| 20260506125015 | 10 | 212 | 0.0 | 0.0 | 0.03 | 0.03 | 0.03 | 100 | 1018.1 |
| 20260506124015 | 10 | 216 | 0.0 | 0.0 | 0.03 | 0.03 | 0.03 | 100 | 1018.1 |
| 20260506123015 | 10 | 216 | 0.0 | 0.0 | 0.00 | 0.00 | 0.00 | 100 | 1018.1 |
| 20260506122017 | 10 | 216 | 0.0 | 0.0 | 0.00 | 0.00 | 0.00 | 100 | 1018.0 |
| 20260506121017 | 10 | 216 | 0.0 | 0.0 | 0.00 | 0.00 | 0.00 | 100 | 1018.0 |
| 20260506120017 | 10 | 216 | 0.0 | 0.0 | 0.00 | 0.00 | 0.00 | 100 | 1018.0 |
| 20260506115017 | 10 | 216 | 0.0 | 0.0 | 0.00 | 0.00 | 0.00 | 100 | 1017.6 |
| 20260506114017 | 10 | 216 | 0.0 | 0.0 | 0.00 | 0.00 | 0.00 | 100 | 1017.6 |
| 20260506113017 | 10 | 216 | 0.0 | 0.0 | 0.00 | 0.00 | 0.00 | 100 | 1017.6 |
| 20260506112037 | 10 | 216 | 0.0 | 0.0 | 0.00 | 0.00 | 0.00 | 100 | 1017.6 |
| 20260506111017 | 9 | 216 | 0.0 | 0.0 | 0.00 | 0.00 | 0.00 | 100 | 1017.5 |
| 20260506110017 | 9 | 216 | 0.0 | 0.0 | 0.00 | 0.00 | 0.00 | 100 | 1017.5 |
| 20260506105057 | 9 | 216 | 0.0 | 0.0 | 0.00 | 0.00 | 0.00 | 100 | 1017.1 |
| 20260506104017 | 9 | 216 | 0.0 | 0.0 | 0.00 | 0.00 | 0.00 | 100 | 1017.0 |
| 20260506103037 | 9 | 216 | 0.0 | 0.0 | 0.00 | 0.00 | 0.00 | 100 | 1017.0 |
| 20260506102017 | 9 | 216 | 0.0 | 0.0 | 0.00 | 0.00 | 0.00 | 100 | 1016.8 |
| 20260506101017 | 8 | 216 | 0.0 | 0.0 | 0.00 | 0.00 | 0.00 | 100 | 1016.8 |
| 20260506100017 | 8 | 216 | 0.0 | 0.0 | 0.00 | 0.00 | 0.00 | 100 | 1016.8 |
| 20260506095017 | 8 | 216 | 0.0 | 0.0 | 0.00 | 0.00 | 0.00 | 100 | 1016.7 |
| 20260506094017 | 8 | 216 | 0.0 | 0.0 | 0.00 | 0.00 | 0.00 | 100 | 1016.8 |
| 20260506093017 | 8 | 216 | 0.0 | 0.0 | 0.00 | 0.00 | 0.00 | 100 | 1016.8 |
| 20260506092017 | 8 | 216 | 0.0 | 0.0 | 0.00 | 0.00 | 0.00 | 100 | 1016.8 |
| 20260506091037 | 8 | 216 | 0.0 | 0.0 | 0.00 | 0.00 | 0.00 | 100 | 1016.7 |
| 20260506090017 | 8 | 216 | 0.0 | 0.0 | 0.00 | 0.00 | 0.00 | 100 | 1016.6 |
| 20260506085016 | 8 | 216 | 0.0 | 0.0 | 0.00 | 0.00 | 0.00 | 100 | 1016.6 |
| 20260506084037 | 8 | 216 | 0.0 | 0.0 | 0.00 | 0.00 | 0.00 | 100 | 1016.5 |
| 20260506083057 | 7 | 216 | 0.0 | 0.0 | 0.00 | 0.00 | 0.00 | 100 | 1016.5 |
| 20260506082017 | 7 | 216 | 0.0 | 0.0 | 0.00 | 0.00 | 0.00 | 100 | 1016.5 |
| 20260506081016 | 7 | 216 | 0.0 | 0.0 | 0.00 | 0.00 | 0.00 | 100 | 1016.3 |
| 20260506073016 | 7 | 216 | 0.0 | 0.0 | 0.00 | 0.00 | 0.00 | 100 | 1015.9 |
| 20260506072017 | 8 | 216 | 0.0 | 0.0 | 0.00 | 0.00 | 0.00 | 100 | 1015.9 |
| 20260506071016 | 8 | 216 | 0.0 | 0.0 | 0.00 | 0.00 | 0.00 | 100 | 1015.8 |
| 20260506062016 | 8 | 216 | 0.0 | 0.0 | 0.00 | 0.00 | 0.00 | 100 | 1015.5 |
| 20260506061036 | 9 | 217 | 0.0 | 0.0 | 0.00 | 0.00 | 0.00 | 100 | 1015.5 |
| 20260506051016 | 10 | 216 | 0.0 | 0.0 | 0.00 | 0.00 | 0.00 | 100 | 1015.4 |
| 20260506045016 | 10 | 216 | 0.0 | 0.0 | 0.00 | 0.00 | 0.00 | 99 | 1015.4 |
| 20260506044016 | 11 | 216 | 0.0 | 0.0 | 0.00 | 0.00 | 0.00 | 98 | 1015.3 |
| 20260506043036 | 11 | 216 | 0.0 | 0.0 | 0.00 | 0.00 | 0.00 | 96 | 1015.2 |
| 20260506042016 | 11 | 216 | 0.0 | 0.0 | 0.00 | 0.00 | 0.00 | 95 | 1014.9 |
| 20260506041036 | 11 | 216 | 0.0 | 0.0 | 0.00 | 0.00 | 0.00 | 94 | 1014.6 |
| 20260506040036 | 12 | 216 | 0.0 | 0.0 | 0.00 | 0.00 | 0.00 | 93 | 1014.6 |
| 20260506035016 | 12 | 216 | 0.0 | 0.0 | 0.00 | 0.00 | 0.00 | 91 | 1014.4 |
| 20260506034016 | 12 | 216 | 0.0 | 0.0 | 0.00 | 0.00 | 0.00 | 90 | 1014.3 |
| 20260506033016 | 13 | 216 | 0.0 | 0.0 | 0.00 | 0.00 | 0.00 | 89 | 1014.3 |
| 20260506032036 | 13 | 216 | 0.0 | 0.0 | 0.00 | 0.00 | 0.00 | 89 | 1014.3 |
| 20260506031036 | 14 | 216 | 0.0 | 0.0 | 0.00 | 0.00 | 0.00 | 88 | 1014.3 |
| 20260506030112 | 14 | 216 | 0.0 | 0.0 | 0.00 | 0.00 | 0.00 | 87 | 1014.3 |
| 20260506025016 | 14 | 216 | 0.0 | 0.0 | 0.00 | 0.00 | 0.00 | 87 | 1014.4 |
| 20260506024015 | 15 | 225 | 0.0 | 1.6 | 0.00 | 0.00 | 0.00 | 87 | 1014.4 |
| 20260506023035 | 15 | 225 | 0.0 | 3.2 | 0.00 | 0.00 | 0.00 | 86 | 1014.4 |
| 20260506022016 | 15 | 225 | 0.0 | 3.2 | 0.00 | 0.00 | 0.00 | 86 | 1014.4 |
| 20260506021016 | 15 | 225 | 0.0 | 3.2 | 0.00 | 0.00 | 0.00 | 85 | 1014.3 |
| 20260506020016 | 15 | 225 | 0.0 | 4.8 | 0.00 | 0.00 | 0.00 | 85 | 1014.3 |
| 20260506015016 | 15 | 225 | 0.0 | 3.2 | 0.00 | 0.00 | 0.00 | 84 | 1014.4 |
| 20260506014016 | 15 | 225 | 0.0 | 3.2 | 0.00 | 0.00 | 0.00 | 84 | 1014.4 |
| 20260506013015 | 16 | 225 | 0.0 | 4.8 | 0.00 | 0.00 | 0.00 | 83 | 1014.4 |
| 20260506012056 | 16 | 225 | 1.6 | 8.0 | 0.00 | 0.00 | 0.00 | 83 | 1014.4 |
| 20260506011016 | 16 | 225 | 0.0 | 1.6 | 0.00 | 0.00 | 0.00 | 83 | 1014.4 |
| 20260506010016 | 16 | 225 | 0.0 | 3.2 | 0.00 | 0.00 | 0.00 | 83 | 1014.4 |
| 20260506005021 | 16 | 225 | 0.0 | 1.6 | 0.00 | 0.00 | 0.00 | 84 | 1014.4 |
| 20260506004036 | 16 | 225 | 1.6 | 8.0 | 0.00 | 0.00 | 0.00 | 84 | 1014.4 |
| 20260506003015 | 16 | 203 | 1.6 | 6.4 | 0.00 | 0.00 | 0.00 | 82 | 1014.4 |
| 20260506002015 | 16 | 203 | 1.6 | 6.4 | 0.00 | 0.00 | 0.00 | 82 | 1014.4 |
| 20260506001015 | 16 | 203 | 1.6 | 6.4 | 0.00 | 0.00 | 0.00 | 83 | 1014.6 |
| 20260506000015 | 16 | 203 | 0.0 | 4.8 | 0.00 | 0.00 | 0.00 | 83 | 1014.6 |
| 20260505235017 | 16 | 203 | 1.6 | 6.4 | 0.00 | 0.00 | 0.00 | 82 | 1014.9 |
| 20260505234015 | 16 | 203 | 0.0 | 4.8 | 0.00 | 0.00 | 0.00 | 83 | 1014.9 |
| 20260505233017 | 16 | 203 | 0.0 | 4.8 | 0.00 | 0.00 | 0.00 | 82 | 1014.9 |
| 20260505232017 | 17 | 203 | 1.6 | 4.8 | 0.00 | 0.00 | 0.00 | 82 | 1014.9 |
| 20260505231017 | 17 | 203 | 0.0 | 4.8 | 0.00 | 0.00 | 0.00 | 81 | 1015.0 |
| 20260505230017 | 17 | 203 | 1.6 | 6.4 | 0.00 | 0.00 | 0.00 | 82 | 1015.0 |
| 20260505225016 | 17 | 203 | 3.2 | 11.3 | 0.00 | 0.00 | 0.00 | 84 | 1015.1 |
| 20260505224017 | 17 | 203 | 1.6 | 8.0 | 0.00 | 0.00 | 0.00 | 84 | 1015.0 |
| 20260505223037 | 17 | 203 | 1.6 | 11.3 | 0.00 | 0.00 | 0.00 | 84 | 1015.0 |
| 20260505222018 | 17 | 225 | 6.4 | 12.9 | 0.00 | 0.00 | 0.00 | 83 | 1015.1 |
| 20260505221017 | 17 | 225 | 0.0 | 6.4 | 0.00 | 0.00 | 0.00 | 82 | 1015.3 |
| 20260505220058 | 17 | 225 | 1.6 | 6.4 | 0.00 | 0.00 | 0.00 | 84 | 1015.3 |
| 20260505215017 | 17 | 225 | 1.6 | 6.4 | 0.00 | 0.00 | 0.00 | 84 | 1015.4 |
| 20260505214017 | 17 | 180 | 1.6 | 11.3 | 0.00 | 0.00 | 0.00 | 84 | 1015.6 |
| 20260505213017 | 16 | 180 | 1.6 | 6.4 | 0.00 | 0.00 | 0.00 | 87 | 1015.6 |
| 20260505212017 | 16 | 180 | 0.0 | 6.4 | 0.00 | 0.00 | 0.00 | 88 | 1015.5 |
| 20260505211017 | 16 | 270 | 0.0 | 8.0 | 0.00 | 0.00 | 0.00 | 88 | 1015.4 |
| 20260505210017 | 16 | 270 | 1.6 | 4.8 | 0.00 | 0.00 | 0.00 | 90 | 1015.4 |
| 20260505205037 | 15 | 270 | 1.6 | 6.4 | 0.00 | 0.00 | 0.00 | 91 | 1015.5 |
| 20260505204017 | 15 | 265 | 0.0 | 0.0 | 0.00 | 0.00 | 0.00 | 93 | 1015.7 |
| 20260505203017 | 14 | 270 | 1.6 | 4.8 | 0.00 | 0.00 | 0.00 | 95 | 1015.7 |
| 20260505202017 | 13 | 270 | 0.0 | 3.2 | 0.00 | 0.00 | 0.00 | 96 | 1015.7 |
| 20260505201017 | 13 | 270 | 1.6 | 4.8 | 0.00 | 0.00 | 0.00 | 96 | 1015.8 |
| 20260505200017 | 13 | 270 | 0.0 | 1.6 | 0.00 | 0.00 | 0.00 | 97 | 1015.8 |
| 20260505195017 | 13 | 270 | 0.0 | 1.6 | 0.00 | 0.00 | 0.00 | 98 | 1015.8 |
| 20260505194037 | 13 | 265 | 0.0 | 0.0 | 0.00 | 0.00 | 0.00 | 98 | 1015.8 |
| 20260505193016 | 13 | 270 | 0.0 | 3.2 | 0.00 | 0.00 | 0.00 | 98 | 1015.8 |
| 20260505192017 | 12 | 270 | 0.0 | 4.8 | 0.00 | 0.00 | 0.00 | 99 | 1015.7 |
| 20260505191017 | 12 | 270 | 0.0 | 1.6 | 0.00 | 0.00 | 0.00 | 99 | 1015.7 |
| 20260505190036 | 12 | 270 | 1.6 | 4.8 | 0.00 | 0.00 | 0.00 | 99 | 1015.7 |
| 20260505185016 | 12 | 265 | 0.0 | 0.0 | 0.00 | 0.00 | 0.00 | 99 | 1015.8 |
| 20260505184017 | 12 | 270 | 0.0 | 1.6 | 0.00 | 0.00 | 0.00 | 99 | 1015.7 |
| 20260505183016 | 12 | 270 | 0.0 | 6.4 | 0.00 | 0.00 | 0.00 | 99 | 1015.7 |
| 20260505182016 | 13 | 270 | 0.0 | 3.2 | 0.00 | 0.00 | 0.00 | 99 | 1015.6 |
| 20260505181016 | 13 | 265 | 0.0 | 0.0 | 0.00 | 0.00 | 0.00 | 100 | 1015.3 |
| 20260505180036 | 12 | 265 | 0.0 | 0.0 | 0.00 | 0.00 | 0.00 | 100 | 1015.3 |
| 20260505175037 | 12 | 270 | 0.0 | 1.6 | 0.00 | 0.00 | 0.00 | 100 | 1015.3 |
| 20260505174016 | 12 | 270 | 0.0 | 4.8 | 0.00 | 0.00 | 0.00 | 100 | 1015.2 |
| 20260505173016 | 12 | 270 | 0.0 | 3.2 | 0.00 | 0.00 | 0.00 | 100 | 1015.2 |
| 20260505172016 | 12 | 265 | 0.0 | 0.0 | 0.00 | 0.00 | 0.00 | 100 | 1015.3 |
| 20260505171016 | 12 | 265 | 0.0 | 0.0 | 0.00 | 0.00 | 0.00 | 100 | 1015.3 |
| 20260505170016 | 12 | 270 | 0.0 | 3.2 | 0.00 | 0.00 | 0.00 | 100 | 1015.3 |
| 20260505165056 | 12 | 270 | 0.0 | 1.6 | 0.00 | 0.00 | 0.00 | 100 | 1015.3 |
| 20260505164036 | 12 | 265 | 0.0 | 0.0 | 0.00 | 0.00 | 0.00 | 100 | 1015.2 |
| 20260505163016 | 12 | 265 | 0.0 | 0.0 | 0.00 | 0.00 | 0.00 | 100 | 1015.2 |
| 20260505162036 | 12 | 265 | 0.0 | 0.0 | 0.00 | 0.00 | 0.00 | 100 | 1015.1 |
| 20260505161016 | 11 | 265 | 0.0 | 0.0 | 0.00 | 0.00 | 0.00 | 100 | 1015.0 |
| 20260505153016 | 11 | 265 | 0.0 | 0.0 | 0.00 | 0.00 | 0.00 | 100 | 1014.9 |
| 20260505152016 | 11 | 265 | 0.0 | 0.0 | 0.00 | 0.00 | 0.00 | 100 | 1014.8 |
| 20260505151016 | 11 | 265 | 0.0 | 0.0 | 0.00 | 0.00 | 0.00 | 100 | 1014.6 |